Date,TemperatureHighF,TemperatureAvgF,TemperatureLowF,DewpointHighF,DewpointAvgF,DewpointLowF,HumidityHigh,HumidityAvg,HumidityLow,PressureMaxIn,PressureMinIn,WindSpeedMaxMPH,WindSpeedAvgMPH,GustSpeedMaxMPH,PrecipitationSumIn
2013-1-1,40.6,37.5,32.4,34.6,31.7,26.3,88,80,58,30.60,30.45,8,1,8,0.00
2013-1-2,43.0,34.8,30.2,32.8,28.4,25.4,89,78,50,30.45,30.27,8,1,8,0.00
2013-1-3,41.2,34.8,28.6,35.6,28.8,25.2,92,79,57,30.27,30.18,6,1,6,0.12
2013-1-4,42.4,40.1,37.4,41.3,38.8,35.3,97,95,92,30.39,30.18,6,1,6,0.04
2013-1-5,45.0,42.2,38.8,42.7,38.8,31.8,97,88,69,30.24,30.15,13,1,13,0.16
2013-1-6,43.9,41.3,35.8,41.6,37.7,31.4,96,87,73,30.21,30.01,12,1,12,0.28
2013-1-7,51.8,44.3,37.9,47.2,38.5,31.3,100,82,52,30.18,29.83,24,4,24,0.20
2013-1-8,47.5,42.2,38.3,47.5,40.0,34.5,100,92,81,30.21,29.71,15,2,15,2.09
2013-1-9,46.4,41.9,32.0,42.0,31.0,23.9,88,66,47,30.01,29.71,20,5,20,0.04
2013-1-10,44.2,36.4,31.6,32.9,26.8,20.9,88,70,42,30.21,30.01,8,1,8,0.00
2013-1-11,40.3,33.1,28.2,27.7,21.3,14.8,82,63,39,30.42,30.21,6,1,6,0.00
2013-1-12,37.2,29.9,25.5,26.9,20.8,17.8,82,70,48,30.51,30.39,6,1,6,0.00
2013-1-13,37.9,32.8,26.8,30.2,25.3,22.7,88,75,55,30.57,30.48,6,1,6,0.00
2013-1-14,39.7,36.9,34.7,34.1,31.9,27.8,89,82,74,30.66,30.51,5,1,5,0.00
2013-1-15,42.4,38.9,32.0,38.3,34.4,32.2,93,83,71,30.77,30.66,6,1,6,0.04
2013-1-16,41.0,38.7,37.4,32.4,30.2,27.8,77,71,59,30.74,30.60,6,1,6,0.00
2013-1-17,42.6,36.9,30.9,34.6,30.8,26.7,91,79,61,30.60,30.36,6,1,6,0.00
2013-1-18,42.4,38.7,36.5,35.4,33.1,30.6,94,81,63,30.42,30.33,8,2,8,0.00
2013-1-19,42.8,38.2,31.5,32.8,30.9,26.4,84,75,65,30.48,30.39,5,1,6,0.00
2013-1-20,41.4,34.2,27.7,37.0,31.0,23.8,100,88,76,30.48,30.36,8,1,8,0.00
2013-1-21,39.4,34.7,32.2,36.5,33.0,29.7,100,94,78,30.36,30.21,7,1,7,0.00
2013-1-22,40.1,36.7,32.0,35.2,33.2,30.6,100,87,69,30.21,30.01,7,2,7,0.00
2013-1-23,43.2,39.9,37.0,41.0,36.1,31.6,93,87,67,30.15,29.92,15,2,15,0.12
2013-1-24,43.2,38.5,30.6,41.0,34.5,26.9,97,86,68,30.24,30.06,10,1,10,0.16
2013-1-25,49.1,41.7,36.9,44.0,36.9,31.3,95,84,61,30.12,29.95,6,1,6,0.00
2013-1-26,45.1,40.8,37.4,41.4,37.5,33.9,94,88,73,30.09,29.89,5,0,5,0.08
2013-1-27,42.6,37.8,32.5,40.6,34.4,29.9,100,88,78,30.09,30.04,8,2,8,0.04
2013-1-28,44.1,39.7,34.7,40.6,33.5,30.0,94,80,58,30.12,30.04,13,2,13,0.00
2013-1-29,46.4,43.1,39.2,42.4,37.0,30.2,92,79,58,30.36,30.09,9,1,9,0.04
2013-1-30,45.5,43.9,41.5,42.5,41.1,39.1,94,90,85,30.45,30.36,5,1,5,0.00
2013-1-31,50.5,44.3,37.4,47.0,41.7,33.9,100,90,74,30.42,30.33,7,1,10,0.04
2013-2-1,47.1,42.0,35.6,42.9,38.4,31.8,95,87,74,30.51,30.39,5,1,6,0.00
2013-2-2,45.5,40.5,34.5,41.0,37.0,31.6,100,88,69,30.48,30.30,6,1,8,0.00
2013-2-3,46.6,43.1,32.0,42.3,39.7,37.9,94,88,74,30.36,30.24,4,1,6,0.08
2013-2-4,48.6,45.0,41.2,42.0,39.6,36.7,96,82,66,30.24,29.92,9,2,12,0.00
2013-2-5,49.1,44.6,40.8,43.9,40.0,34.9,96,84,72,29.95,29.83,17,2,17,0.28
2013-2-6,47.1,44.3,40.3,42.2,38.5,32.4,93,80,58,30.06,29.77,17,3,17,0.12
2013-2-7,49.5,42.4,33.3,37.7,30.4,25.7,82,63,42,30.27,29.77,10,3,17,0.00
2013-2-8,49.6,38.9,30.4,40.5,30.0,26.2,92,71,47,30.39,30.27,6,1,6,0.00
2013-2-9,45.5,40.5,34.9,38.8,34.9,30.5,89,81,59,30.42,30.30,6,1,6,0.00
2013-2-10,45.5,42.2,37.6,40.2,35.4,30.5,91,78,56,30.45,30.39,6,0,6,0.00
2013-2-11,47.3,42.6,37.9,41.6,37.8,32.6,91,83,68,30.39,30.36,6,0,6,0.00
2013-2-12,51.6,45.2,40.3,44.8,39.0,29.4,95,80,50,30.45,30.30,25,3,25,0.00
2013-2-13,52.0,46.2,40.6,34.1,30.0,26.4,73,54,38,30.54,30.33,13,4,13,0.00
2013-2-14,46.2,44.2,42.1,43.8,40.2,30.4,93,86,61,30.66,30.54,5,0,5,0.24
2013-2-15,50.0,45.0,41.7,44.7,40.6,35.1,97,85,60,30.66,30.24,8,1,8,0.04
2013-2-16,61.7,45.2,38.7,47.9,33.0,27.9,94,65,38,30.24,30.15,27,4,27,0.00
2013-2-17,47.1,41.4,35.4,37.5,33.1,28.4,84,73,54,30.30,30.15,9,1,9,0.00
2013-2-18,44.8,41.8,38.1,40.4,34.8,29.9,93,77,59,30.15,29.83,12,2,12,0.24
2013-2-19,49.1,42.7,34.0,35.1,30.6,26.6,81,63,43,30.06,29.80,10,3,10,0.00
2013-2-20,45.0,39.3,31.1,39.9,33.2,26.2,93,79,63,30.09,30.06,10,1,10,0.04
2013-2-21,49.8,43.5,40.3,38.0,32.9,28.8,84,67,50,30.09,30.04,15,5,15,0.00
2013-2-22,50.0,42.9,39.9,42.1,32.6,23.9,92,68,43,30.06,29.68,31,6,31,0.43
2013-2-23,53.2,43.2,34.2,33.7,26.9,22.6,82,54,36,30.39,29.89,13,3,13,0.00
2013-2-24,46.6,43.5,40.6,38.8,34.1,24.4,85,70,48,30.39,29.92,13,3,13,0.00
2013-2-25,52.0,44.2,36.3,39.8,28.5,21.8,89,57,34,30.33,29.86,23,8,23,0.12
2013-2-26,46.9,41.0,34.0,36.6,30.9,24.0,87,68,51,30.39,30.18,11,2,11,0.04
2013-2-27,56.1,42.4,35.1,39.9,32.8,28.8,88,70,43,30.39,30.24,8,1,8,0.00
2013-2-28,46.4,42.8,39.0,45.3,40.0,33.5,96,90,79,30.33,30.24,8,1,8,0.55
2013-3-1,55.9,51.0,46.4,49.5,46.1,42.0,97,84,63,30.33,30.27,17,3,17,0.87
2013-3-2,56.7,47.7,34.5,49.8,37.6,25.1,95,70,45,30.30,30.12,18,4,18,0.24
2013-3-3,60.6,43.0,30.7,32.0,26.4,23.4,79,53,31,30.39,30.24,8,2,8,0.00
2013-3-4,48.0,39.4,31.3,38.1,29.1,26.7,94,68,46,30.39,30.03,11,2,11,0.00
2013-3-5,47.8,43.5,37.6,38.5,30.7,22.6,88,62,42,30.03,29.86,15,3,15,0.12
2013-3-6,45.5,42.6,39.7,39.9,38.2,35.9,88,84,74,29.95,29.74,5,0,5,0.20
2013-3-7,51.3,43.0,35.6,44.3,36.8,31.2,93,79,52,30.18,29.95,8,1,8,0.04
2013-3-8,50.2,42.0,34.3,40.7,32.6,27.4,92,71,44,30.30,30.15,9,2,9,0.00
2013-3-9,57.9,42.9,31.1,41.9,31.6,27.1,87,66,39,30.57,30.30,11,2,11,0.00
2013-3-10,49.1,43.4,36.9,40.0,35.1,30.6,85,73,57,30.54,30.48,6,1,6,0.00
2013-3-11,49.6,42.0,34.5,41.3,34.5,29.2,91,76,53,30.51,30.18,6,2,6,0.20
2013-3-12,55.4,49.0,43.5,50.2,45.1,41.0,96,87,63,30.18,30.03,15,2,15,0.55
2013-3-13,51.6,49.5,32.0,48.8,47.0,32.0,95,91,86,30.18,30.09,13,1,13,0.28
2013-3-14,52.9,48.9,45.7,49.8,46.2,43.8,96,91,75,30.18,30.03,10,1,10,0.20
2013-3-15,57.4,49.6,43.5,49.5,44.1,39.9,96,82,54,30.27,30.18,9,2,9,0.12
2013-3-16,57.2,46.9,40.6,40.9,32.5,23.4,88,60,36,30.18,29.95,21,5,21,0.00
2013-3-17,56.3,43.3,32.0,31.1,23.7,19.7,79,49,27,30.21,30.01,17,5,17,0.00
2013-3-18,56.5,45.1,35.6,34.1,27.1,21.4,85,53,29,30.30,30.09,17,4,18,0.20
2013-3-19,48.2,41.4,33.3,41.2,29.7,23.2,86,65,39,30.30,29.62,13,3,13,0.08
2013-3-20,58.5,47.3,32.0,47.2,33.9,17.9,92,62,39,30.03,29.39,30,8,30,0.16
2013-3-21,55.6,43.2,36.3,31.5,24.0,18.6,70,48,30,30.27,30.03,17,5,17,0.00
2013-3-22,52.5,39.0,29.1,33.0,22.5,17.1,84,55,28,30.45,30.27,10,1,10,0.00
2013-3-23,51.8,41.2,33.4,34.4,25.4,19.0,84,56,32,30.48,30.39,9,1,9,0.00
2013-3-24,49.3,41.1,34.3,33.1,26.2,20.5,79,57,33,30.39,30.21,8,2,8,0.00
2013-3-25,58.3,47.0,35.6,33.9,27.1,21.3,77,48,27,30.21,30.07,8,2,8,0.00
2013-3-26,56.5,48.0,39.4,37.3,31.4,26.3,76,54,37,30.12,30.07,8,2,8,0.00
2013-3-27,58.1,49.6,39.7,41.6,34.6,31.3,85,58,37,30.09,30.03,8,1,8,0.00
2013-3-28,62.4,50.1,39.4,43.2,35.7,32.8,86,60,36,30.21,30.09,9,1,9,0.00
2013-3-29,59.2,49.1,37.0,43.5,36.0,31.2,85,62,44,30.36,30.21,7,2,7,0.00
2013-3-30,60.1,49.9,37.9,44.6,35.4,33.0,88,60,37,30.36,30.18,10,2,10,0.00
2013-3-31,63.9,51.9,39.2,42.6,34.7,31.7,85,56,32,30.18,30.03,9,3,9,0.00
2013-4-1,62.1,50.2,32.0,43.4,37.4,31.6,80,62,41,30.18,30.03,11,2,11,0.00
2013-4-2,56.8,49.1,39.9,43.1,37.4,33.6,87,66,44,30.27,30.18,8,1,8,0.00
2013-4-3,59.7,52.6,47.7,41.5,38.0,31.8,74,59,38,30.27,30.07,9,2,9,0.00
2013-4-4,53.1,50.3,48.0,48.3,44.2,38.5,92,80,62,30.07,29.68,7,1,7,0.39
2013-4-5,58.3,52.1,48.0,49.7,45.0,40.6,94,78,56,29.92,29.71,14,2,14,0.04
2013-4-6,58.8,51.1,45.5,45.6,36.1,26.8,89,59,31,29.98,29.71,26,5,26,0.08
2013-4-7,52.7,47.3,43.5,43.3,39.6,34.7,91,75,52,29.95,29.65,15,4,15,0.24
2013-4-8,59.4,48.8,37.9,42.5,36.0,32.8,90,63,38,30.33,29.95,8,2,9,0.00
2013-4-9,50.4,47.1,40.5,44.2,39.0,33.3,86,74,59,30.42,30.18,10,1,10,0.00
2013-4-10,60.8,51.8,46.9,47.5,37.8,29.4,94,62,36,30.27,29.95,23,7,23,0.43
2013-4-11,58.1,47.6,39.2,34.7,30.3,27.0,75,53,35,30.39,30.24,16,2,16,0.00
2013-4-12,45.5,41.7,36.7,41.1,33.5,25.3,86,73,53,30.24,29.74,16,2,16,0.16
2013-4-13,56.3,43.2,34.5,38.7,31.5,22.2,80,64,37,30.07,29.80,13,4,13,0.04
2013-4-14,54.7,44.2,34.5,39.3,31.1,26.2,88,63,38,30.09,30.03,10,2,10,0.00
2013-4-15,56.5,46.7,38.1,41.0,35.0,29.4,86,66,39,30.27,30.01,9,2,9,0.12
2013-4-16,60.1,49.3,36.5,42.7,29.7,21.0,87,52,24,30.48,30.27,8,3,8,0.00
2013-4-17,64.4,50.7,39.9,38.7,29.5,22.6,77,48,23,30.51,30.45,15,3,15,0.00
2013-4-18,50.2,48.0,45.3,46.1,41.1,29.9,90,77,49,30.51,30.24,13,1,13,0.08
2013-4-19,56.8,51.5,48.2,51.4,46.4,38.0,95,83,64,30.24,30.12,14,2,14,0.43
2013-4-20,63.9,52.8,41.9,40.7,34.9,30.0,83,53,34,30.33,30.24,20,5,20,0.00
2013-4-21,57.4,47.5,40.1,38.6,33.0,29.1,73,58,37,30.48,30.27,12,3,12,0.04
2013-4-22,59.7,48.4,35.2,39.8,27.9,15.8,86,50,19,30.66,30.48,9,2,9,0.00
2013-4-23,59.4,48.5,36.5,36.4,30.2,25.6,81,52,30,30.54,30.39,10,3,10,0.00
2013-4-24,64.4,53.3,38.8,39.3,33.0,27.5,85,50,27,30.42,30.15,8,2,8,0.00
2013-4-25,67.3,54.7,42.1,41.9,36.4,33.1,79,53,29,30.21,30.12,9,2,9,0.00
2013-4-26,68.9,54.5,39.9,42.6,34.5,26.0,80,51,23,30.33,30.21,13,3,13,0.00
2013-4-27,58.6,55.4,50.9,42.7,34.7,26.6,61,46,30,30.30,30.21,23,6,23,0.00
2013-4-28,63.1,51.9,40.3,41.5,31.8,26.7,77,49,26,30.30,30.01,18,5,18,0.00
2013-4-29,62.1,49.2,41.4,41.8,28.4,22.9,78,46,24,30.24,30.01,20,4,20,0.04
2013-4-30,59.2,49.3,39.6,36.6,27.6,21.9,77,46,26,30.54,30.24,10,2,10,0.04
2013-5-1,58.8,49.4,35.1,33.3,28.0,22.9,75,46,26,30.72,30.54,8,2,8,0.00
2013-5-2,62.1,53.4,40.5,37.3,32.4,28.3,74,47,29,30.66,30.54,9,2,9,0.00
2013-5-3,65.7,55.8,41.2,43.0,36.5,32.8,76,50,33,30.54,30.39,10,3,10,0.00
2013-5-4,72.3,60.4,45.0,39.7,36.2,30.9,74,44,22,30.39,30.15,11,2,11,0.00
2013-5-5,81.0,65.2,48.6,43.2,37.7,34.0,70,40,19,30.15,29.95,11,2,11,0.00
2013-5-6,79.3,65.0,32.0,45.7,39.9,34.6,72,43,21,30.01,29.89,8,2,8,0.00
2013-5-7,67.5,57.9,48.7,45.2,42.1,38.2,74,57,37,30.09,29.95,10,2,10,0.00
2013-5-8,68.5,56.5,46.6,46.7,41.8,39.6,78,60,37,30.27,30.09,10,2,10,0.00
2013-5-9,70.3,57.6,45.3,46.1,41.1,38.7,81,57,34,30.33,30.24,8,2,8,0.00
2013-5-10,69.6,58.0,46.8,45.7,41.5,38.5,79,56,35,30.33,30.24,8,2,8,0.00
2013-5-11,69.6,58.5,50.7,53.5,43.9,36.4,84,61,34,30.30,30.15,8,1,8,0.04
2013-5-12,65.8,59.5,55.4,58.1,53.4,46.3,92,81,63,30.21,30.12,11,1,11,0.24
2013-5-13,63.1,56.1,49.8,51.5,43.9,33.2,87,65,42,30.30,30.03,26,4,26,0.04
2013-5-14,62.4,56.0,48.9,42.2,36.8,32.4,72,50,34,30.33,30.24,13,4,13,0.00
2013-5-15,64.9,56.3,50.9,48.8,41.5,33.1,79,60,33,30.27,30.15,9,2,9,0.04
2013-5-16,63.9,56.4,50.7,50.0,45.0,39.8,87,68,43,30.15,30.03,8,2,8,0.00
2013-5-17,61.9,55.5,50.9,52.8,45.9,38.0,87,72,42,30.18,30.07,11,2,11,0.08
2013-5-18,61.0,55.4,51.3,49.7,46.0,40.0,86,72,48,30.42,30.15,9,1,9,0.08
2013-5-19,67.1,58.0,50.9,48.5,41.6,35.8,84,57,33,30.54,30.42,10,2,10,0.00
2013-5-20,65.3,55.4,45.3,45.3,40.0,36.0,79,58,36,30.48,30.09,9,2,9,0.16
2013-5-21,56.3,51.1,46.8,45.4,41.8,34.4,85,71,46,30.09,29.92,8,2,8,0.16
2013-5-22,62.1,53.5,43.5,45.4,38.4,32.2,86,60,34,30.09,29.98,9,2,9,0.24
2013-5-23,60.4,53.6,47.7,46.1,39.0,32.8,89,61,37,30.15,30.03,13,2,14,0.04
2013-5-24,67.1,56.1,43.3,44.4,36.9,33.8,81,51,32,30.18,30.09,10,2,10,0.00
2013-5-25,63.9,56.0,51.6,46.3,40.8,32.8,77,58,36,30.18,30.12,10,2,10,0.00
2013-5-26,61.9,55.2,32.0,50.8,45.9,41.3,86,72,48,30.15,30.09,8,1,8,0.12
2013-5-27,56.8,54.5,51.6,51.0,49.1,45.7,90,82,74,30.09,29.83,10,0,10,0.24
2013-5-28,59.9,54.9,50.9,50.1,47.1,41.7,87,76,53,30.01,29.89,11,1,11,0.04
2013-5-29,59.7,54.6,51.1,50.7,45.1,35.2,85,72,44,30.09,29.83,15,3,15,0.16
2013-5-30,62.8,55.2,47.7,46.7,40.5,35.8,78,59,39,30.36,30.09,11,3,11,0.04
2013-5-31,66.6,57.7,49.6,45.8,39.0,33.1,81,53,30,30.48,30.36,9,2,9,0.00
2013-6-1,66.0,58.7,51.8,48.3,40.7,34.6,81,54,33,30.42,30.24,8,2,8,0.00
2013-6-2,67.3,60.9,53.2,46.0,40.8,36.9,73,49,35,30.24,30.18,11,3,11,0.00
2013-6-3,70.9,60.2,49.1,47.7,41.7,38.4,77,53,33,30.27,30.21,8,2,9,0.00
2013-6-4,77.7,63.5,48.4,47.9,41.2,33.7,75,48,21,30.30,30.21,8,2,8,0.00
2013-6-5,72.0,63.7,54.9,47.9,44.8,40.8,74,52,33,30.27,30.18,8,2,8,0.00
2013-6-6,74.5,63.7,52.3,50.3,44.0,37.8,76,51,31,30.21,30.15,9,2,9,0.00
2013-6-7,74.8,64.5,55.8,51.8,42.4,33.4,80,48,24,30.27,30.15,17,4,17,0.08
2013-6-8,66.9,58.5,49.6,43.9,38.8,35.5,70,49,36,30.30,30.27,9,2,9,0.00
2013-6-9,72.9,61.3,50.0,44.9,37.7,30.8,72,45,23,30.27,30.18,13,3,13,0.00
2013-6-10,72.0,61.1,46.6,43.0,36.5,31.5,69,42,24,30.18,30.01,14,4,14,0.00
2013-6-11,69.3,61.1,54.5,38.1,33.8,30.6,49,37,26,30.24,30.07,17,5,17,0.00
2013-6-12,65.3,57.6,52.9,50.0,41.9,35.0,83,57,35,30.30,30.21,11,2,11,0.04
2013-6-13,70.3,61.3,50.4,46.4,40.8,34.6,79,50,28,30.33,30.27,15,3,15,0.00
2013-6-14,71.1,61.4,52.7,42.6,39.4,36.4,66,45,32,30.36,30.24,13,2,13,0.00
2013-6-15,71.8,62.2,48.9,47.8,42.0,39.2,75,50,32,30.24,30.09,9,2,9,0.00
2013-6-16,74.3,62.9,32.0,49.1,43.7,40.2,74,51,32,30.21,30.12,7,2,10,0.00
2013-6-17,73.4,64.3,54.5,49.8,42.7,38.1,69,47,32,30.21,30.07,11,3,11,0.00
2013-6-18,69.1,62.2,54.9,51.4,44.1,36.0,78,54,30,30.12,30.07,10,2,10,0.00
2013-6-19,72.9,62.7,50.9,49.9,41.2,34.1,76,48,27,30.15,30.07,13,3,13,0.00
2013-6-20,62.8,59.3,56.7,47.3,41.5,37.5,65,52,42,30.24,30.07,16,5,16,0.08
2013-6-21,66.6,59.9,53.1,47.7,44.9,41.7,74,59,43,30.33,30.21,8,2,8,0.00
2013-6-22,72.9,63.0,49.8,48.9,42.4,39.1,78,50,32,30.30,30.07,8,2,8,0.00
2013-6-23,65.5,61.7,56.5,57.1,50.5,43.3,86,67,54,30.07,29.80,7,2,8,0.04
2013-6-24,66.7,61.2,56.8,57.3,50.2,42.6,90,69,44,29.89,29.71,16,2,16,0.04
2013-6-25,69.4,60.5,55.4,53.9,48.9,43.0,87,68,42,30.01,29.83,9,2,9,0.04
2013-6-26,70.3,61.5,55.0,53.9,49.8,45.0,90,67,42,30.27,29.98,8,2,8,0.08
2013-6-27,68.0,61.3,57.0,57.4,53.8,48.3,91,77,61,30.42,30.24,8,1,8,0.08
2013-6-28,73.8,65.7,56.5,58.5,52.5,49.5,87,64,43,30.42,30.27,8,2,8,0.00
2013-6-29,81.9,68.7,59.9,59.9,50.8,43.0,86,56,32,30.30,30.21,8,2,8,0.00
2013-6-30,86.2,72.6,55.8,54.1,49.3,45.9,76,47,26,30.24,30.09,8,2,8,0.00
2013-7-1,85.3,71.0,60.4,52.5,48.0,41.9,71,46,28,30.24,30.12,8,2,8,0.00
2013-7-2,81.7,69.3,58.1,51.2,45.6,38.8,72,45,23,30.33,30.24,9,2,9,0.00
2013-7-3,75.7,64.7,51.8,46.0,40.7,32.8,67,44,22,30.36,30.27,9,2,10,0.00
2013-7-4,73.8,63.9,53.1,45.4,40.8,37.8,65,44,29,30.33,30.24,10,2,10,0.00
2013-7-5,74.7,65.4,52.3,50.1,43.2,40.2,74,47,31,30.24,30.18,11,2,11,0.00
2013-7-6,76.3,66.1,53.8,50.1,43.3,40.3,70,46,31,30.21,30.12,9,2,10,0.00
2013-7-7,77.5,66.0,54.3,49.6,44.9,42.0,73,49,29,30.18,30.12,10,2,10,0.00
2013-7-8,75.2,65.7,54.3,50.6,45.6,42.5,73,51,33,30.33,30.18,9,2,9,0.00
2013-7-9,78.6,67.1,54.5,50.0,45.5,40.3,72,48,30,30.33,30.24,9,2,9,0.00
2013-7-10,76.6,66.3,54.9,49.2,41.3,30.1,72,43,21,30.27,30.18,13,3,13,0.00
2013-7-11,71.8,63.4,54.7,39.6,35.7,30.8,52,37,24,30.30,30.18,11,4,11,0.00
2013-7-12,75.2,63.5,51.8,44.3,39.6,34.8,67,44,24,30.33,30.21,11,2,11,0.00
2013-7-13,73.9,64.5,49.8,43.4,39.0,33.3,67,41,23,30.42,30.33,8,2,8,0.00
2013-7-14,78.1,65.1,52.7,47.2,41.1,35.0,67,44,21,30.39,30.27,13,2,13,0.00
2013-7-15,78.8,68.0,52.3,44.8,38.6,32.5,68,38,20,30.33,30.18,9,3,10,0.00
2013-7-16,86.9,71.7,56.3,43.0,38.8,35.5,52,32,18,30.18,30.09,9,2,9,0.00
2013-7-17,77.0,68.3,60.6,48.2,44.4,38.6,63,43,32,30.42,30.12,11,2,11,0.00
2013-7-18,79.2,67.8,55.0,50.3,45.5,42.8,74,47,30,30.48,30.36,8,2,8,0.00
2013-7-19,78.3,67.5,55.2,50.5,46.5,42.8,72,49,31,30.39,30.27,9,2,9,0.00
2013-7-20,71.8,64.1,55.4,50.4,45.7,42.7,73,53,36,30.30,30.21,10,2,10,0.00
2013-7-21,72.5,63.1,53.1,49.8,46.0,43.5,75,55,36,30.21,30.15,9,2,9,0.00
2013-7-22,75.0,64.5,53.1,49.8,45.1,42.5,75,52,34,30.30,30.15,10,2,10,0.00
2013-7-23,79.9,67.0,53.8,49.6,43.6,37.4,74,46,23,30.30,30.24,8,2,9,0.00
2013-7-24,79.9,67.3,54.1,47.3,43.3,35.2,70,45,22,30.33,30.24,9,2,9,0.00
2013-7-25,77.7,65.4,52.3,46.7,42.7,38.0,69,46,25,30.36,30.27,8,2,8,0.00
2013-7-26,76.8,64.5,52.9,46.8,42.8,39.7,72,47,31,30.39,30.33,13,2,13,0.00
2013-7-27,74.5,64.4,52.2,46.8,41.6,38.3,72,46,28,30.36,30.24,9,2,9,0.00
2013-7-28,75.6,64.8,51.6,45.8,42.1,39.0,69,46,31,30.24,30.18,10,2,10,0.00
2013-7-29,73.2,62.2,53.1,48.3,44.0,41.1,74,53,33,30.24,30.18,8,2,8,0.00
2013-7-30,69.4,60.8,51.8,49.0,44.9,42.6,73,57,40,30.36,30.24,10,2,10,0.00
2013-7-31,71.6,61.1,52.3,52.5,45.5,42.8,80,58,36,30.33,30.21,9,2,9,0.00
2013-8-1,70.3,62.3,52.9,50.5,45.6,42.3,79,56,37,30.27,30.21,10,2,10,0.00
2013-8-2,62.6,59.3,56.7,56.4,51.4,47.3,85,75,63,30.36,30.24,5,1,6,0.04
2013-8-3,72.9,62.9,56.8,53.7,50.3,45.5,83,65,41,30.39,30.33,8,2,8,0.00
2013-8-4,76.8,66.0,54.7,55.9,47.5,44.3,80,54,32,30.33,30.24,8,2,8,0.00
2013-8-5,76.6,65.3,54.0,49.7,44.6,38.6,73,50,26,30.27,30.21,8,2,9,0.00
2013-8-6,78.8,64.1,51.4,48.2,43.4,40.5,73,50,26,30.27,30.18,7,2,7,0.00
2013-8-7,78.8,65.1,53.1,49.1,43.8,40.8,73,49,27,30.27,30.18,10,2,10,0.00
2013-8-8,77.2,65.8,54.5,50.3,43.6,35.1,74,47,24,30.27,30.21,8,2,8,0.00
2013-8-9,79.9,66.2,53.2,47.4,43.7,40.9,74,46,30,30.21,30.12,7,2,8,0.00
2013-8-10,71.1,62.6,56.1,53.4,46.5,41.6,79,57,40,30.24,30.09,15,2,15,0.00
2013-8-11,69.8,61.2,56.5,54.8,46.7,39.8,84,61,34,30.30,30.21,8,2,8,0.08
2013-8-12,72.1,62.7,54.9,51.5,46.2,42.3,79,57,35,30.33,30.24,8,2,8,0.00
2013-8-13,74.3,63.9,54.5,50.4,45.3,41.1,78,54,32,30.36,30.21,9,2,9,0.00
2013-8-14,73.8,62.0,54.3,55.8,48.3,42.9,81,62,35,30.21,30.15,6,1,6,0.04
2013-8-15,68.4,61.2,55.4,56.5,52.5,48.3,84,74,52,30.27,30.15,6,1,6,0.00
2013-8-16,76.1,63.2,53.6,57.0,50.9,44.7,90,67,35,30.30,30.21,10,2,10,0.00
2013-8-17,77.4,63.3,32.0,53.3,48.5,37.9,72,59,32,30.30,0.00,15,2,15,0.00
2013-8-18,75.0,64.4,32.0,50.2,43.8,35.0,75,49,24,30.21,17.81,12,2,12,0.00
2013-8-19,72.1,62.7,55.2,48.0,44.4,38.6,71,53,34,30.21,30.15,9,2,9,0.00
2013-8-20,73.2,64.3,53.6,49.3,41.8,34.4,73,47,26,30.27,30.18,8,2,8,0.00
2013-8-21,77.0,65.0,51.1,49.5,41.1,37.7,79,45,25,30.21,29.95,9,2,9,0.00
2013-8-22,82.0,66.7,52.3,48.8,41.1,38.0,74,43,22,29.98,29.80,8,2,8,0.00
2013-8-23,77.7,64.2,54.1,54.5,45.2,39.5,73,53,26,29.92,29.80,16,3,16,0.00
2013-8-24,72.9,64.4,57.6,53.4,46.6,41.6,74,54,35,29.95,29.89,11,2,11,0.00
2013-8-25,73.2,63.6,52.7,48.0,42.3,37.0,75,49,29,29.95,29.86,8,2,8,0.00
2013-8-26,69.8,59.9,50.7,51.0,44.3,37.6,77,58,34,29.92,29.83,8,2,8,0.00
2013-8-27,70.9,62.3,32.0,55.6,49.6,45.4,83,64,45,29.95,29.83,12,2,12,0.24
2013-8-28,69.6,64.2,58.8,59.0,55.2,51.4,88,74,55,29.92,29.83,7,1,7,0.04
2013-8-29,66.2,62.9,59.7,61.5,58.2,53.6,91,85,68,29.95,29.86,11,1,11,0.51
2013-8-30,72.7,65.0,57.0,55.4,49.4,45.0,84,58,41,30.18,29.95,17,3,17,0.00
2013-8-31,71.4,63.5,54.3,56.8,48.1,41.5,89,60,35,30.12,29.86,9,2,9,0.00
2013-9-1,74.5,63.6,53.4,54.0,46.9,42.5,84,57,33,29.89,29.83,8,2,8,0.00
2013-9-2,71.2,61.5,55.4,58.1,50.5,45.5,90,69,43,29.95,29.86,6,1,6,0.04
2013-9-3,71.6,61.9,55.8,60.8,54.0,48.8,93,77,46,30.07,29.92,8,1,8,0.20
2013-9-4,69.4,61.6,55.4,60.9,54.2,50.9,91,77,56,30.07,30.03,8,1,8,0.00
2013-9-5,68.7,61.7,56.3,62.2,56.6,52.1,93,84,65,30.07,29.95,6,1,10,0.28
2013-9-6,67.6,62.3,56.8,60.8,55.9,52.1,93,80,67,30.09,29.92,8,1,8,0.00
2013-9-7,70.7,61.5,56.7,60.2,54.3,51.4,93,78,52,30.09,30.07,6,1,6,0.04
2013-9-8,75.7,63.7,53.6,57.9,50.1,46.7,88,64,40,30.12,30.03,9,1,9,0.00
2013-9-9,72.1,62.8,53.1,52.6,49.2,46.5,83,63,43,30.07,30.01,8,2,8,0.00
2013-9-10,74.7,64.6,53.1,57.0,46.9,41.7,85,56,33,30.03,29.95,10,2,10,0.00
2013-9-11,83.7,70.0,56.7,55.6,46.9,39.7,82,49,23,30.01,29.92,8,2,8,0.00
2013-9-12,77.2,65.5,56.5,53.5,47.3,43.9,78,54,33,30.01,29.92,6,2,6,0.00
2013-9-13,66.6,59.0,53.2,53.1,49.2,46.7,88,71,51,29.95,29.86,8,2,8,0.00
2013-9-14,67.8,59.5,32.0,56.6,52.1,47.6,94,77,57,29.89,29.77,8,1,8,0.00
2013-9-15,64.2,57.5,53.2,57.2,52.4,47.2,93,84,60,29.77,29.71,11,1,11,0.08
2013-9-16,72.9,62.7,56.3,57.3,51.3,41.6,94,69,34,29.92,29.77,12,2,12,0.00
2013-9-17,67.5,58.8,52.2,53.2,46.3,40.6,80,65,38,29.92,29.86,12,2,12,0.12
2013-9-18,71.4,59.1,50.5,51.0,45.5,38.6,84,64,34,30.07,29.92,8,1,8,0.00
2013-9-19,70.0,60.1,52.5,52.3,43.2,34.1,88,58,27,30.03,29.77,8,2,8,0.00
2013-9-20,66.7,56.7,47.5,54.8,45.5,39.5,87,68,38,29.77,29.59,6,1,6,0.16
2013-9-21,70.2,59.9,53.2,57.4,50.7,44.5,91,73,42,29.71,29.62,9,2,9,0.12
2013-9-22,64.8,57.0,54.1,55.8,50.3,42.6,90,79,46,29.68,29.47,14,2,14,0.31
2013-9-23,64.9,56.7,50.7,51.5,42.8,31.3,86,63,30,29.95,29.68,14,4,14,0.08
2013-9-24,61.2,54.0,49.8,50.1,45.5,40.1,87,74,48,29.95,29.86,8,1,8,0.28
2013-9-25,66.6,55.8,48.2,48.5,42.5,36.0,88,64,35,30.01,29.89,10,1,10,0.20
2013-9-26,68.4,54.4,44.2,47.1,39.8,37.6,85,60,34,30.12,30.01,8,2,8,0.00
2013-9-27,57.9,53.8,51.6,53.4,47.7,39.8,93,80,63,30.07,29.80,8,1,8,0.20
2013-9-28,56.3,53.4,50.5,54.3,49.8,44.7,94,88,71,29.80,29.27,17,3,17,1.38
2013-9-29,56.8,52.4,50.5,51.8,49.6,47.2,94,90,72,29.47,29.39,10,2,10,0.67
2013-10-1,55.8,52.5,50.5,46.9,45.6,39.7,86,78,55,30.07,29.98,7,0,7,0.08
2013-10-2,53.8,50.5,32.0,50.9,46.4,44.1,93,85,73,30.18,30.03,8,1,8,0.31
2013-10-3,63.9,50.7,43.0,46.8,41.3,37.4,92,72,41,30.45,30.18,8,1,8,0.00
2013-10-4,56.8,50.3,42.3,51.3,43.2,35.6,96,78,55,30.48,30.36,6,1,6,0.00
2013-10-5,61.3,55.6,51.8,49.0,44.2,34.1,86,68,36,30.36,30.15,6,2,6,0.00
2013-10-6,72.5,56.4,46.0,54.5,43.2,38.2,89,64,33,30.15,29.80,8,1,8,0.00
2013-10-7,72.0,58.1,53.8,47.6,39.6,34.0,79,52,30,29.98,29.80,22,8,22,0.00
2013-10-8,68.2,53.2,44.6,47.9,37.5,31.8,83,57,33,30.09,29.95,11,2,13,0.00
2013-10-9,64.8,50.4,40.3,45.1,38.1,33.8,87,64,38,30.12,29.95,8,1,8,0.00
2013-10-10,55.6,51.0,32.0,46.8,41.6,35.9,84,70,54,30.07,29.92,7,1,7,0.00
2013-10-11,55.2,48.8,41.2,46.1,39.9,34.5,90,72,52,30.15,30.07,7,1,7,0.00
2013-10-12,57.0,51.1,43.3,50.3,42.2,36.3,91,73,51,30.21,30.07,9,1,9,0.08
2013-10-13,63.1,48.2,39.4,48.1,37.0,34.3,90,67,41,30.36,30.21,7,1,7,0.00
2013-10-14,57.2,47.8,39.6,47.0,38.7,34.5,90,72,52,30.42,30.36,8,1,8,0.00
2013-10-15,63.3,49.4,41.9,48.5,41.4,36.4,87,75,43,30.39,30.18,8,1,8,0.00
2013-10-16,58.5,50.2,43.7,49.8,42.1,36.6,94,75,54,30.21,30.15,8,1,8,0.00
2013-10-17,64.6,48.0,39.6,49.2,40.7,35.1,89,76,43,30.27,30.21,7,1,7,0.00
2013-10-18,51.6,47.8,45.0,48.7,45.5,41.3,97,92,84,30.24,30.15,8,1,8,0.00
2013-10-19,51.3,48.5,46.0,49.6,46.4,45.2,100,93,83,30.21,30.12,7,1,7,0.00
2013-10-20,52.2,49.7,48.6,45.9,44.8,43.2,89,84,72,30.21,30.15,6,1,6,0.00
2013-10-21,52.0,49.1,47.5,47.2,45.8,43.8,96,89,74,30.18,30.12,6,2,6,0.00
2013-10-22,55.9,48.9,45.3,48.7,45.5,40.4,100,88,71,30.12,30.03,6,1,6,0.00
2013-10-23,68.4,49.9,42.1,56.1,43.6,38.4,97,80,42,30.07,30.01,6,1,6,0.00
2013-10-24,54.3,46.3,32.0,48.3,42.2,36.4,95,85,69,30.12,30.01,5,1,5,0.00
2013-10-25,53.2,50.3,47.7,50.8,47.7,46.4,97,91,79,30.33,30.12,5,0,5,0.00
2013-10-26,56.3,52.1,49.1,49.3,45.7,40.3,92,80,57,30.36,30.18,6,1,6,0.00
2013-10-27,73.4,55.1,49.3,46.0,39.4,32.7,86,58,26,30.18,29.98,9,2,9,0.00
2013-10-28,73.2,51.6,41.4,37.7,26.0,20.6,65,38,22,30.03,29.98,12,2,12,0.00
2013-10-29,63.9,45.2,36.9,36.5,30.4,25.5,79,58,31,30.03,29.95,7,2,7,0.00
2013-10-30,53.1,45.9,37.0,44.0,37.7,30.0,86,74,54,30.09,30.01,9,1,9,0.00
2013-10-31,54.0,50.8,48.7,48.4,46.2,44.0,91,84,72,30.24,30.03,6,0,6,0.08
2013-11-1,55.0,51.6,48.7,49.0,46.5,43.4,92,83,66,30.24,29.80,8,1,8,0.12
2013-11-2,52.3,48.2,42.8,50.6,44.0,35.3,97,86,63,29.86,29.39,15,2,15,1.34
2013-11-3,56.1,42.2,33.8,41.3,31.8,27.1,90,69,40,30.09,29.86,6,1,10,0.00
2013-11-4,54.7,41.7,33.3,46.4,32.7,28.8,89,71,53,30.18,30.07,8,1,8,0.00
2013-11-5,45.7,42.8,39.0,43.1,39.9,34.5,96,90,69,30.24,30.01,10,1,10,0.16
2013-11-6,49.8,45.8,40.1,45.6,41.8,36.9,94,86,71,30.30,29.98,6,1,6,0.08
2013-11-7,55.9,49.5,46.4,50.0,45.2,37.3,100,86,51,29.98,29.65,17,2,17,0.43
2013-11-8,54.5,49.5,44.6,40.0,36.0,32.0,82,60,47,30.15,29.92,16,3,17,0.00
2013-11-9,51.3,46.8,41.9,45.0,40.3,35.9,90,79,57,30.12,30.09,5,0,5,0.00
2013-11-10,50.9,47.4,44.4,42.6,40.1,36.5,89,76,60,30.18,30.12,8,2,8,0.00
2013-11-11,54.7,49.5,46.9,37.2,34.5,31.5,67,57,42,30.18,30.01,8,1,8,0.00
2013-11-12,60.3,51.2,47.3,52.2,43.6,34.9,92,76,57,30.30,29.98,9,2,9,0.08
2013-11-13,58.1,50.4,43.5,49.1,41.5,36.7,93,73,47,30.42,30.30,14,3,14,0.00
2013-11-14,54.3,47.0,40.6,45.1,38.2,32.5,88,73,49,30.30,30.03,6,1,6,0.00
2013-11-15,48.6,45.1,40.8,43.4,38.0,28.5,87,77,46,30.03,29.33,23,3,23,0.04
2013-11-16,47.8,42.9,32.0,39.3,28.8,22.2,85,59,41,29.74,29.36,15,3,15,0.00
2013-11-17,53.1,44.3,34.5,43.5,36.5,25.2,94,75,48,29.86,29.71,18,4,18,0.04
2013-11-18,48.0,46.3,44.6,45.5,43.7,42.3,95,90,85,29.86,29.53,9,1,9,0.75
2013-11-19,46.6,40.3,31.3,42.7,28.3,10.9,93,64,33,30.09,29.59,12,1,12,0.04
2013-11-20,43.0,34.5,28.6,24.8,19.0,13.3,80,54,39,30.51,30.09,8,1,8,0.00
2013-11-21,40.6,33.2,28.0,31.4,24.1,21.5,85,70,48,30.68,30.48,6,1,6,0.00
2013-11-22,44.4,35.5,28.6,35.0,27.8,24.0,93,74,55,30.66,30.45,8,1,8,0.00
2013-11-23,46.8,37.8,31.3,36.4,30.1,26.7,89,74,53,30.45,30.21,6,1,6,0.00
2013-11-24,48.0,38.4,31.6,38.0,30.8,27.0,93,75,52,30.24,30.15,8,1,8,0.00
2013-11-25,48.6,39.4,34.5,41.4,32.6,30.0,92,77,53,30.30,30.24,6,1,6,0.00
2013-11-26,46.4,39.6,32.5,42.6,32.5,28.8,93,76,59,30.27,30.09,6,1,6,0.00
2013-11-27,54.3,43.5,36.1,38.3,32.0,26.9,86,66,36,30.09,29.98,6,1,6,0.00
2013-11-28,50.7,43.6,35.2,42.4,37.6,30.6,90,79,66,30.15,30.03,5,0,5,0.00
2013-11-29,51.3,47.2,43.7,46.1,41.6,39.0,91,81,65,30.27,30.15,7,1,7,0.04
2013-11-30,48.4,47.1,45.7,47.3,45.6,42.9,96,94,90,30.27,30.03,7,1,7,0.16
2013-12-1,54.9,48.6,40.3,49.5,40.9,25.8,100,76,51,30.03,29.74,25,5,25,0.16
2013-12-2,46.6,38.6,32.2,30.1,23.1,15.0,77,55,37,30.15,29.77,13,3,13,0.00
2013-12-3,40.6,36.8,34.7,20.6,14.8,10.8,56,40,33,30.36,30.15,17,6,21,0.00
2013-12-4,37.4,33.0,25.7,15.4,11.5,7.6,56,41,30,30.39,30.30,15,4,15,0.00
2013-12-5,33.3,29.9,25.3,26.3,18.8,9.0,79,64,40,30.33,30.21,18,2,18,0.00
2013-12-6,30.7,27.4,24.1,10.0,4.1,-0.8,42,37,32,30.33,30.18,23,12,23,0.00
2013-12-7,30.4,24.8,17.8,7.1,2.4,-0.9,61,38,32,30.42,30.30,25,6,25,0.00
2013-12-8,34.7,25.9,17.8,19.5,13.8,6.2,73,61,43,30.54,30.39,6,0,6,0.00
2013-12-9,35.1,32.0,24.8,30.2,23.6,17.4,86,71,56,30.54,30.45,9,0,9,0.00
2013-12-10,38.3,35.3,32.7,31.7,29.3,26.0,83,79,75,30.45,30.39,4,0,4,0.00
2013-12-11,41.5,35.9,32.2,35.6,29.0,25.5,91,76,53,30.42,30.15,4,0,4,0.00
2013-12-12,41.2,36.9,31.5,38.8,34.0,28.0,95,89,82,30.15,29.98,7,0,7,0.04
2013-12-13,46.9,43.2,39.9,45.7,42.0,38.6,97,95,93,30.39,30.12,6,0,6,0.00
2013-12-14,47.5,45.7,43.9,46.8,44.4,42.8,100,95,88,30.39,30.27,8,0,8,0.04
2013-12-15,51.6,45.5,35.4,49.2,41.2,30.2,100,86,60,30.42,30.27,11,1,11,0.04
2013-12-16,48.4,38.6,32.7,42.8,34.7,29.2,96,86,76,30.48,30.24,8,0,8,0.00
2013-12-17,44.1,40.0,36.3,42.7,37.7,32.8,96,91,81,30.24,30.03,9,1,9,0.00
2013-12-18,46.2,41.0,34.9,36.2,27.2,18.2,87,59,39,30.24,30.03,22,3,22,0.00
2013-12-19,38.8,35.7,31.3,29.5,21.5,15.0,75,57,39,30.36,30.18,6,1,6,0.00
2013-12-20,36.9,35.5,34.0,36.7,33.8,27.9,100,94,76,30.18,29.71,6,1,11,0.67
2013-12-21,41.2,39.0,36.7,41.2,39.0,36.7,100,100,100,30.15,29.86,4,0,4,0.24
2013-12-22,45.1,42.4,40.3,45.1,42.4,40.3,100,100,100,30.27,30.15,6,0,6,0.28
2013-12-23,53.6,46.2,35.4,50.2,39.6,31.8,100,80,48,30.48,30.07,18,4,22,0.08
2013-12-24,43.5,37.3,32.2,40.9,34.1,29.4,100,88,77,30.60,30.48,5,0,5,0.00
2013-12-25,43.9,39.6,33.4,42.3,36.3,32.2,100,88,76,30.54,30.36,5,0,5,0.00
2013-12-26,48.0,41.6,34.0,41.1,36.5,29.8,92,82,70,30.36,30.18,6,0,6,0.00
2013-12-27,51.1,40.0,33.6,47.1,36.6,30.3,100,88,66,30.33,30.07,15,2,15,0.08
2013-12-28,46.0,37.2,30.6,44.4,33.8,29.0,100,88,68,30.54,30.33,5,0,5,0.00
2013-12-29,46.8,41.1,33.4,44.2,38.0,30.5,97,89,76,30.48,30.30,5,0,5,0.00
2013-12-30,46.9,44.2,42.6,43.1,40.7,38.0,94,87,73,30.30,30.09,10,1,10,0.00
2013-12-31,48.4,45.7,43.2,47.0,43.2,40.7,100,91,82,30.36,30.15,6,1,6,0.04
2014-1-1,47.3,45.4,44.1,44.3,42.3,40.7,93,89,80,30.39,30.24,5,1,5,0.04
2014-1-2,46.9,44.6,40.6,46.2,42.3,31.1,100,92,68,30.24,29.86,9,1,9,0.31